Regional Weather Roundup
Issued by NWS

Home | Current Version | Previous Version | Graphics & Text | Print | Product List | Glossary On
Versions: 1 2 3 4 5 6 7 8 9 10 11 12 13 14 15 16 17 18 19 20 21 22 23 24 25 26 27 28 29 30 31 32 33 34 35 36 37 38 39 40 41 42 43 44 45 46 47 48 49 50
445
ASUS45 KBOU 140910
RWRCO

WEATHER ROUNDUP FOR COLORADO
NATIONAL WEATHER SERVICE DENVER/BOULDER CO
200 AM MST THU DEC 14 2017

NOTE: "FAIR" INDICATES FEW OR NO CLOUDS BELOW 12000 FEET WITH NO
SIGNIFICANT WEATHER AND/OR OBSTRUCTIONS TO VISIBILITY.

COZ001>005-013-030-031-141000-
...NORTHWEST COLORADO...

CITY           SKY/WX    TMP DP  RH WIND       PRES   REMARKS
CRAIG          LGT SNOW  30  27  88 VRB3      30.14S FOG
HAYDEN         LGT SNOW  28  27  96 W3        30.15R FOG
MEEKER         LGT SNOW  30  28  92 NW6       30.13S FOG     WCI  24
RABBIT EARS PA LGT SNOW  19  18  93 N6        30.08S WCI  11
STEAMBOAT SPGS CLOUDY    28  28  99 CALM      30.12R VSB 1
WALDEN         CLOUDY    23  16  74 N15       30.13R WCI  10
$$

COZ006>008-011-141000-
...WEST CENTRAL VALLEYS...

CITY           SKY/WX    TMP DP  RH WIND       PRES   REMARKS
GRAND JUNCTION CLOUDY    35  33  92 NW7       30.10R WCI  29
MONTROSE       CLOUDY    35  27  72 NE7       30.10R WCI  29
EAGLE          LGT SNOW  27  25  92 CALM      30.12S FOG
RIFLE          CLOUDY    33  28  81 CALM      30.11R
DELTA          CLOUDY    39  13  35 NE3       30.07R
NUCLA          CLOUDY    37  25  60 NW7       30.07R
$$

COZ017>023-064>068-141000-
...SOUTHWEST COLORADO...

CITY           SKY/WX    TMP DP  RH WIND       PRES   REMARKS
DURANGO        FAIR      30   9  41 NE6       29.97F WCI  24
CORTEZ         CLOUDY    39  32  76 CALM      30.00F
PAGOSA SPRINGS CLOUDY    32   4  29 E9        29.99F WCI  24
TELLURIDE      CLOUDY    29  14  53 W14       30.04R WCI  18
WOLF CREEK PAS LGT SNOW  21  18  86 CALM      30.10F
$$

COZ009-010-012-014-032>034-037-058>063-141000-
...CENTRAL COLORADO...

CITY           SKY/WX    TMP DP  RH WIND       PRES   REMARKS
ASPEN          LGT SNOW  27  25  92 NW5       30.06S FOG     WCI  22
BUENA VISTA    LGT SNOW  28  25  87 E6        30.09R WCI  22
COPPER MTN     NOT AVBL
BERTHOUD PASS  SNOW       9  -2  61 S10       30.06S VSB 1/2 WCI  -6
COTTONWOOD PAS LGT SNOW  28  27  93 E3        30.07R VSB 1
GUNNISON       FAIR      29  15  56 SW5       30.02R WCI  24
KREMMLING      LGT SNOW  32  32 100 CALM      30.11R
LEADVILLE      LGT SNOW  20  18  92 S7        30.04R VSB 1   WCI  11
MONARCH PASS   SNOW      14  12  92 NE15      30.14R VSB<1/4 WCI  -1
SALIDA         CLOUDY    32  20  61 E9G18     30.17R WCI  24
SUNLIGHT       LGT SNOW  19  18  93 CALM      30.11S
WILKERSON PASS LGT SNOW  14  10  85 CALM      30.09S
$$

COZ069>075-141000-
...SAN LUIS VALLEY/SANGRE DE CRISTO MOUNTAINS...

CITY           SKY/WX    TMP DP  RH WIND       PRES   REMARKS
ALAMOSA        CLOUDY    35   9  33 E17G26    29.99F WCI  25
DEL NORTE      CLOUDY    36   7  29 SE8       30.02R
LA VETA PASS   CLOUDY    19  10  68 NE17        N/A  WCI   4
SAGUACHE       CLOUDY    36  21  55 SW9       30.01R
$$

COZ035-036-038>040-141000-
...NORTHERN COLORADO FRONT RANGE...

CITY           SKY/WX    TMP DP  RH WIND       PRES   REMARKS
DENVER INTL AP LGT SNOW  30  27  88 N7        30.18S FOG     WCI  23
DMNS CITY PARK NOT AVBL
AURORA         FLURRIES  29  29  99 N8        30.18R WCI  21
FRONT RANGE AP LGT SNOW  32  31  94 N6        30.19R WCI  26
ERIE MUNI ARPT LGT SNOW  32  30  94 NE6       30.25S WCI  26
BOULDER MUN AP LGT SNOW  32  32 100 N3        30.20R
CENTENNIAL     LGT SNOW  29  28  96 N7        30.17R FOG     WCI  22
BROOMFIELD     LGT SNOW  32  30  93 N9        30.19S WCI  24
FORT COLLINS   MIX PCPN  31  29  92 N12       30.20R FOG     WCI  22
LONGMONT       LGT SNOW  33  31  91 NE5       30.22R WCI  29
$$

COZ041-046-047-076>085-087-088-141000-
...PIKES PEAK/PALMER DIVIDE AND SOUTHERN FOOTHILLS...

CITY           SKY/WX    TMP DP  RH WIND       PRES   REMARKS
COLO. SPRINGS  LGT SNOW  30  26  85 NE9       30.15R FOG     WCI  22
A. F. ACADEMY  LGT SNOW  28  24  88 NW8       30.13R FOG     WCI  19
SCHRIEVER AFB  LGT SNOW  28  26  90 N7        30.15R WCI  21
CHEYENNE MTN   SNOW      26  25  96 N13       30.07R VSB 1/2 WCI  15
ELLICOTT       LGT SNOW N/A N/A N/A NE12      30.14R
FALCON         LGT SNOW  27  24  89 N8        30.14S WCI  18
FORT CARSON    LGT SNOW  30  28  93 NE8       30.14R FOG     WCI  23
LIMON          CLOUDY    29  25  85 NW12      30.15R WCI  19
MONUMENT HILL  LGT SNOW  25  23  93 N6        30.15S WCI  18
CANON CITY     CLOUDY    39  16  38 SE6       30.11R
WALSENBURG     CLOUDY    32  14  47 SW5       30.12F WCI  27
TRINIDAD       FAIR      34  14  43 NW6       30.12R WCI  29
$$

COZ042>045-048>051-090-091-141000-
...NORTHEAST COLORADO...

CITY           SKY/WX    TMP DP  RH WIND       PRES   REMARKS
GREELEY ARPT   FLURRIES  34  25  69 N13       30.20R WCI  25
AKRON          LGT SNOW  30  27  88 NW10      30.15S FOG     WCI  21
BURLINGTON     CLOUDY    33  25  72 NW7       30.13R WCI  27
WRAY           LGT SNOW  34  32  93 NW9G17    30.15S WCI  26
YUMA           FLURRIES  32  30  93 NW8       30.15S WCI  25
STERLING       CLOUDY    36  28  75 N8        30.15S
HOLYOKE        FAIR      36  30  80 NW9       30.14S
FORT MORGAN    LGT SNOW  31  30  93 W3        30.18S
$$

COZ086-089-092>099-141000-
...SOUTHEAST COLORADO...

CITY           SKY/WX    TMP DP  RH WIND       PRES   REMARKS
PUEBLO         CLOUDY    40  14  34 SE6       30.13R
LA JUNTA       CLOUDY    36  17  46 N7        30.14R
LAMAR          FAIR      36  15  42 NE3       30.12R
SPRINGFIELD      N/A     34  16  47 N9        30.10R WCI  27
$$




USA.gov is the U.S. government's official web portal to all federal, state and local government web resources and services.